Regional Weather Roundup
Issued by NWS

Home | Current Version | Previous Version | Graphics & Text | Print | Product List | Glossary On
Versions: 1 2 3 4 5 6 7 8 9 10 11 12 13 14 15 16 17 18 19 20 21 22 23 24 25 26 27 28 29 30 31 32 33 34 35 36 37 38 39 40 41 42 43 44 45 46 47 48 49 50
000
ASUS43 KMKX 070221
RWRWI

WISCONSIN REGIONAL WEATHER ROUNDUP
NATIONAL WEATHER SERVICE MILWAUKEE/SULLIVAN WI
900 PM CDT WED MAY 06 2015

NOTE: "FAIR" INDICATES FEW OR NO CLOUDS BELOW 12,000 FEET WITH NO
SIGNIFICANT WEATHER AND/OR OBSTRUCTIONS TO VISIBILITY.

WIZ001-002-006>008-014>016-023>028-070300-
NORTHWEST WISCONSIN

CITY           SKY/WX    TMP DP  RH WIND       PRES   REMARKS
SUPERIOR ARPT  CLOUDY    42  35  74 NE9       29.95S
ASHLAND        CLOUDY    49  43  80 N5        29.97R
HAYWARD        CLOUDY    69  57  65 SE8       29.94F
SIREN          CLOUDY    68  57  68 SE8       29.91S
CUMBERLAND     CLOUDY    63  59  88 SE8       29.93F
RICE LAKE      DRIZZLE   64  60  88 E7        29.96S
CHETEK         LGT RAIN  63  61  93 E8        29.95F
LADYSMITH      CLOUDY    69  59  69 SE8       29.97F
EAU CLAIRE     CLOUDY    63  59  87 SE9       29.95F
MENOMONIE      LGT RAIN  63  61  94 E7        29.93F
NEW RICHMOND   CLOUDY    65  59  81 SE12      29.90S
OSCEOLA        CLOUDY    66  60  82 SE13G21   29.91F
$$

WIZ003>005-009-010-017-018-070300-
NORTH CENTRAL WISCONSIN

CITY           SKY/WX    TMP DP  RH WIND       PRES   REMARKS
MANITOWISH WTR MOCLDY    64  58  82 SE5       30.02S
ARBOR VITAE    MOCLDY    64  57  78 SE6       30.03S
WOODRUFF       MOCLDY    64  57  78 SE6       30.03S
RHINELANDER    CLOUDY    63  56  78 SE8       30.05F
EAGLE RIVER    MOCLDY    64  53  68 SE5       30.05S
LAND O LAKES   PTCLDY    65  55  69 S7        30.06R
PHILLIPS       CLOUDY    64  57  79 SE7       29.99F
TOMAHAWK       CLOUDY    62  56  81 SE5       30.04S
MEDFORD        CLOUDY    65  57  77 SE10      30.01R
MERRILL        CLOUDY   N/A N/A N/A SE9       30.04S
$$

WIZ029-030-035-036-043>047-070300-
CENTRAL WISCONSIN

CITY           SKY/WX    TMP DP  RH WIND       PRES   REMARKS
WAUSAU         CLOUDY    64  57  78 E13       30.01F
MOSINEE        CLEAR     64  59  82 E9        30.04S
MARSHFIELD     MOCLDY    67  58  72 SE10      30.00S
STEVENS POINT  MOCLDY    63  55  77 E9G16     30.03S
WAUPACA        MOCLDY    64  57  78 E5        30.05S
WAUTOMA        MOCLDY    66  61  84 E5        30.03F
WISC RAPIDS    MOCLDY    67  56  67 E8        30.02S
CAMP DOUGLAS   MOCLDY    70  66  88 SE9       29.98R
$$

WIZ011>013-019>022-031-037>040-048>050-070300-
NORTHEAST WISCONSIN

CITY           SKY/WX    TMP DP  RH WIND       PRES   REMARKS
ANTIGO         CLOUDY    60  56  87 SE13      30.06F
SHAWANO        MOCLDY    61  55  81 E7        30.07F
OCONTO         MOCLDY    55  54  95 E5        30.09S
STURGEON BAY   MOCLDY    48  36  61 E6        30.12F
GREEN BAY      PTCLDY    61  55  81 SE7       30.08S
MANITOWOC        N/A    N/A N/A N/A MISG        N/A
APPLETON       PTCLDY    63  55  77 VRB6      30.06F
CLINTONVILLE   MOCLDY    63  55  77 E6        30.06S
OSHKOSH        MOCLDY    62  55  77 SE8       30.05F
$$

WIZ032>034-041-042-053>061-070300-
SOUTHWEST WISCONSIN

CITY           SKY/WX    TMP DP  RH WIND       PRES   REMARKS
LA CROSSE      CLOUDY    67  61  81 S7        29.95S
SPARTA         MOCLDY    64  60  86 CALM      30.00R
VIROQUA        CLOUDY    66  59  76 S8        29.99F
BOSCOBEL       MOCLDY    69  58  67 SW3       29.98F
PRAIRIE DU CHI CLOUDY    67  57  69 SE5       29.96F
PLATTEVILLE    MOCLDY    67  60  76 CALM      30.00S
$$

WIZ056-057-062-063-064-067-068-070300-
SOUTH CENTRAL WISCONSIN

CITY           SKY/WX    TMP DP  RH WIND       PRES   REMARKS
REEDSBURG      MOCLDY    69  63  80 E6        29.99R
BARABOO/DELLS  MOCLDY    68  59  73 E10       30.00S
LONE ROCK      MOCLDY    71  57  61 SW7       30.00R
MINERAL POINT  PTCLDY    70  55  60 CALM      30.01F
MADISON        MOCLDY    68  59  73 SE12      30.01F
MIDDLETON      MOCLDY    69  60  72 SE10      30.02S
WATERTOWN      PTCLDY    61  58  90 E7        30.04S
MONROE         PTCLDY    68  54  60 SE9       30.01S
JANESVILLE     CLEAR     66  61  82 E8        30.02S HAZE
$$

WIZ051-052-058>065-066-070>072-070300-
SOUTHEAST WISCONSIN

CITY           SKY/WX    TMP DP  RH WIND       PRES   REMARKS
MILWAUKEE      FOG       45  43  93 NE6       30.10S VSB 1/8
WAUKESHA       MOCLDY    55  52  88 E5        30.08F FOG
MILWAUKEE/TIMM CLOUDY    50  46  87 E5        30.10R FOG
RACINE         FOG       45  44  97 N5        30.11R VSB 1/4
BURLINGTON     PTCLDY    56  54  94 E5        30.07F FOG
KENOSHA        FOG       50  49  96 E8        30.09R VSB 1/2
FOND DU LAC    MOCLDY    60  54  80 SE8       30.05F
SHEBOYGAN      CLOUDY    46  45  96 NE6       30.10S FOG
WEST BEND      MOCLDY    54  50  87 E5        30.08S FOG
JUNEAU         PTCLDY    60  55  83 E10       30.06S
$$

LSZ147-162-070300-
LAKE SUPERIOR

STATION/POSITION TIME  TEMP    WIND        PRES    WAVE
                       AIR SEA DIR/SP/G            HT/PER
                 (UTC) (F)     (DEG/KT/KT) (MB)    (FT/S)
W MID LAKE BUOY  0150   40 35   50/ 12/ 14 1015.8F   1/ 3
DEVILS ISLAND    0200   41      70/  8/ 10 1015.6F
PORT WING        0140   41      40/ 13/ 16 1013.9F
SAXON HARBOR     0100   46        CALM     1014.6F
$$

LMZ867-665-643>646-070300-
LAKE MICHIGAN

STATION/POSITION TIME  TEMP    WIND        PRES    WAVE
                       AIR SEA DIR/SP/G            HT/PER
                 (UTC) (F)     (DEG/KT/KT) (MB)    (FT/S)
CHAMBERS ISLAND  0100   54     110/  2/  4 1019.3F
NORTHPORT PIER   0100   47     130/  3/  4 1019.3F
SISTER BAY       0117   49     150/  6/  9   N/A
KEWAUNEE LAKESHO 0100   45      CALM  /  2 1018.8S
SHEBOYGAN LAKESH 0200   43      50/  3/  4 1020.0F
PORT WASHINGTON  0140   45      50/  6/  8 1020.0R
ATWATER BUOY     0200   43     350/  4/  6 1020.3R
MILWAUKEE LAKESH 0200   45      40/  3/  3   N/A
KENOSHA   LAKESH 0200   45      30/  7/  8 1019.0R
$$

TC  - TEMPERATURE IN CELSIUS
VSB - VISIBILITY IN STATUTE MILES
WCI - WIND CHILL INDEX
HX  - HEAT INDEX



USA.gov is the U.S. government's official web portal to all federal, state and local government web resources and services.